Retour au catalogue

TJS-13

ActifScienceHEO
NORAD 62188·PAYLOAD·🇨🇳 China

Lancé Dec 3, 2024 depuis Xichang Satellite Launch Center

Loading…

Prochains Passages (prochaines 24 heures)

TLE

FraisSource: Space-Track

Époque: Sep 11, 2026, 03:14 UTC

1 62188U 24227A   26254.13520644  .00000491  00000-0  00000-0 0  9990
2 62188  63.8321  28.5942 6976807 269.4161  17.4901  2.00616877 12970

Suivez TJS-13 en temps réel avec AllMySat

Download on the App Store